Date String (YYYY-MM-DD hh:mm:ss) UTC,Instrument flags,Ambient pressure (hPa),Sample flow (lpm),Bypass flow (lpm),Sample temperature (°C),Ambient temperature (°C),ASC tube jacket temperature (°C),LED temperature (°C),Box temperature (°C),Sample RH (%),Span deviation,Mass concentration (μg/m³),Mass concentration (μg/m³),Mass concentration (μg/m³)
DateTimeUTC,F1_M11,P_M11,Q1_M11,Q2_M11,T1_M11,T2_M11,T3_M11,T4_M11,T5_M11,U1_M11,ZSPAN_M11,X2_M11,X0_M11,X1_M11
2023-05-10 08:00:00,,0829.0,5.01,0.00,30.0,28.4,00.0,38.5,31.7,24.4,0001.4,0006.79,0012.21,0005.88
2023-05-10 08:01:00,,0829.0,5.00,0.00,30.0,28.4,00.0,38.5,31.7,24.3,0001.5,0006.79,0011.78,0005.87
2023-05-10 08:02:00,,0829.0,5.00,0.00,30.1,28.4,00.0,38.5,31.7,24.3,0001.4,0006.81,0011.88,0005.85
2023-05-10 08:03:00,,0829.1,4.99,0.00,30.1,28.4,00.0,38.5,31.7,24.4,0001.2,0006.77,0011.83,0005.80
2023-05-10 08:04:00,,0829.1,4.99,0.00,30.1,28.4,00.0,38.5,31.8,24.4,0001.6,0006.70,0011.72,0005.77
2023-05-10 08:05:00,,0829.1,5.00,0.00,30.1,28.5,00.0,38.5,31.7,24.5,0001.8,0006.67,0011.71,0005.75
2023-05-10 08:06:00,,0829.1,5.01,0.00,30.1,28.5,00.0,38.5,31.7,24.6,0001.8,0006.61,0011.55,0005.75
2023-05-10 08:07:00,,0829.1,5.00,0.00,30.1,28.5,00.0,38.5,31.7,24.6,0001.8,0006.60,0011.39,0005.77
2023-05-10 08:08:00,,0829.0,5.00,0.00,30.1,28.5,00.0,38.5,31.7,24.7,0002.0,0006.62,0010.82,0005.78
2023-05-10 08:09:00,,0829.1,5.00,0.00,30.1,28.5,00.0,38.5,31.7,24.9,0002.3,0006.68,0010.65,0005.81
2023-05-10 08:10:00,,0829.1,5.00,0.00,30.1,28.5,00.0,38.5,31.7,24.7,0002.2,0006.73,0010.78,0005.82
2023-05-10 08:11:00,,0829.1,5.01,0.00,30.1,28.5,00.0,38.5,31.8,24.9,0002.3,0006.78,0010.85,0005.82
2023-05-10 08:12:00,,0829.0,5.01,0.00,30.1,28.5,00.0,38.5,31.8,25.1,0001.9,0006.74,0010.64,0005.83
2023-05-10 08:13:00,,0829.0,4.99,0.00,30.1,28.5,00.0,38.5,31.7,25.3,0001.6,0006.78,0010.84,0005.85
2023-05-10 08:14:00,,0829.0,4.99,0.00,30.1,28.5,00.0,38.5,31.7,25.3,0001.3,0006.85,0011.08,0005.90
2023-05-10 08:15:00,,0829.0,5.01,0.00,30.1,28.5,00.0,38.5,31.8,25.4,0001.0,0006.94,0011.24,0005.95
2023-05-10 08:16:00,,0829.0,5.01,0.00,30.1,28.5,00.0,38.5,31.7,25.5,0000.7,0007.03,0011.36,0006.00
2023-05-10 08:17:00,,0828.9,5.00,0.00,30.1,28.6,00.0,38.5,31.7,25.5,0000.8,0007.14,0011.64,0006.04
2023-05-10 08:18:00,,0828.9,4.98,0.00,30.1,28.6,00.0,38.5,31.8,25.4,0000.6,0007.18,0012.43,0006.07
2023-05-10 08:19:00,,0829.0,5.01,0.00,30.1,28.5,00.0,38.5,31.8,25.4,0000.0,0007.27,0012.67,0006.11
2023-05-10 08:20:00,,0829.0,5.01,0.00,30.1,28.5,00.0,38.5,31.8,25.4,-000.1,0007.33,0012.83,0006.14
2023-05-10 08:21:00,,0829.0,4.99,0.00,30.1,28.6,00.0,38.5,31.8,25.4,-000.0,0007.40,0013.08,0006.18
2023-05-10 08:22:00,,0829.0,5.00,0.00,30.1,28.6,00.0,38.5,31.8,25.4,-000.5,0007.40,0013.06,0006.23
2023-05-10 08:23:00,,0829.1,5.01,0.00,30.1,28.5,00.0,38.5,31.8,25.4,-000.4,0007.50,0013.31,0006.27
2023-05-10 08:24:00,,0829.1,4.99,0.00,30.1,28.6,00.0,38.5,31.8,25.4,0000.2,0007.54,0013.28,0006.30
2023-05-10 08:25:00,,0829.0,4.99,0.00,30.1,28.6,00.0,38.6,31.8,25.4,0000.8,0007.50,0013.02,0006.31
2023-05-10 08:26:00,,0829.0,5.01,0.00,30.1,28.6,00.0,38.6,31.8,25.4,0001.2,0007.47,0012.92,0006.30
2023-05-10 08:27:00,,0829.0,5.01,0.00,30.1,28.6,00.0,38.6,31.8,25.5,0001.6,0007.48,0012.98,0006.30
2023-05-10 08:28:00,,0829.0,4.98,0.00,30.1,28.5,00.0,38.6,31.8,25.6,0001.2,0007.48,0012.95,0006.30
2023-05-10 08:29:00,,0829.0,5.00,0.00,30.1,28.5,00.0,38.6,31.8,25.6,0000.9,0007.44,0012.28,0006.29
2023-05-10 08:30:00,,0829.0,5.00,0.00,30.1,28.5,00.0,38.6,31.8,25.6,0001.0,0007.38,0012.34,0006.27
2023-05-10 08:31:00,,0829.0,5.01,0.00,30.1,28.5,00.0,38.6,31.8,25.6,0001.0,0007.33,0012.25,0006.26
2023-05-10 08:32:00,,0829.0,4.98,0.00,30.1,28.6,00.0,38.6,31.8,25.7,0000.8,0007.30,0012.09,0006.25
2023-05-10 08:33:00,,0828.9,5.00,0.00,30.1,28.6,00.0,38.6,31.8,25.7,0001.2,0007.31,0012.09,0006.24
2023-05-10 08:34:00,,0828.9,5.00,0.00,30.1,28.6,00.0,38.6,31.8,25.6,0001.4,0007.22,0011.88,0006.21
2023-05-10 08:35:00,,0828.9,5.00,0.00,30.1,28.6,00.0,38.6,31.8,25.6,0001.0,0007.15,0011.74,0006.19
2023-05-10 08:36:00,,0828.9,5.00,0.00,30.1,28.6,00.0,38.6,31.8,25.6,0000.9,0007.14,0011.67,0006.19
2023-05-10 08:37:00,,0828.9,5.01,0.00,30.1,28.6,00.0,38.6,31.8,25.6,0000.6,0007.15,0011.66,0006.21
2023-05-10 08:38:00,,0828.9,5.00,0.00,30.1,28.6,00.0,38.6,31.8,25.6,0000.1,0007.16,0011.67,0006.22
2023-05-10 08:39:00,,0828.9,4.99,0.00,30.1,28.6,00.0,38.6,31.8,25.6,0000.6,0007.13,0011.63,0006.23
2023-05-10 08:40:00,,0829.0,5.00,0.00,30.2,28.6,00.0,38.6,31.8,25.6,0000.9,0007.14,0011.53,0006.25
2023-05-10 08:41:00,,0829.0,5.01,0.00,30.2,28.6,00.0,38.6,31.8,25.5,0001.4,0007.14,0011.30,0006.26
2023-05-10 08:42:00,,0829.0,5.01,0.00,30.2,28.6,00.0,38.6,31.8,25.5,0000.9,0007.16,0011.22,0006.27
2023-05-10 08:43:00,,0828.9,5.00,0.00,30.2,28.6,00.0,38.6,31.9,25.6,0001.1,0007.18,0011.25,0006.28
2023-05-10 08:44:00,,0829.0,5.00,0.00,30.2,28.6,00.0,38.6,31.8,25.6,0001.2,0007.16,0011.17,0006.29
2023-05-10 08:45:00,,0829.0,4.99,0.00,30.2,28.6,00.0,38.6,31.8,25.5,0001.2,0007.19,0011.23,0006.31
2023-05-10 08:46:00,,0828.9,5.00,0.00,30.2,28.6,00.0,38.6,31.8,25.6,0001.5,0007.24,0011.28,0006.35
2023-05-10 08:47:00,,0828.9,5.01,0.00,30.2,28.6,00.0,38.6,31.8,25.8,0001.4,0007.40,0011.58,0006.45
2023-05-10 08:48:00,,0829.0,4.99,0.00,30.2,28.7,00.0,38.6,31.8,25.7,0001.7,0007.53,0011.88,0006.51
2023-05-10 08:49:00,,0829.0,5.01,0.00,30.2,28.7,00.0,38.6,31.9,25.5,0001.9,0007.55,0011.90,0006.53
2023-05-10 08:50:00,,0828.9,5.01,0.00,30.2,28.7,00.0,38.6,31.9,25.3,0001.4,0007.52,0011.79,0006.53
2023-05-10 08:51:00,,0829.0,5.01,0.00,30.2,28.7,00.0,38.6,31.9,25.3,0001.4,0007.53,0011.79,0006.54
2023-05-10 08:52:00,,0828.9,4.99,0.00,30.2,28.7,00.0,38.6,31.9,25.3,0001.3,0007.59,0011.93,0006.56
2023-05-10 08:53:00,,0829.0,5.01,0.00,30.2,28.7,00.0,38.6,31.9,25.3,0001.5,0007.57,0011.84,0006.57
2023-05-10 08:54:00,,0829.0,5.01,0.00,30.3,28.7,00.0,38.6,31.9,25.2,0001.5,0007.57,0011.75,0006.60
2023-05-10 08:55:00,,0829.0,4.99,0.00,30.3,28.7,00.0,38.6,31.9,25.2,0001.5,0007.58,0011.78,0006.62
2023-05-10 08:56:00,,0828.9,4.99,0.00,30.3,28.7,00.0,38.6,31.9,25.2,0001.2,0007.57,0011.71,0006.62
2023-05-10 08:57:00,,0828.9,5.01,0.00,30.3,28.7,00.0,38.7,31.9,25.2,0001.1,0007.55,0011.66,0006.61
2023-05-10 08:58:00,,0829.0,4.99,0.00,30.3,28.7,00.0,38.7,31.9,25.2,0001.2,0007.48,0011.60,0006.54
2023-05-10 08:59:00,,0829.0,4.99,0.00,30.3,28.8,00.0,38.7,31.9,25.1,0001.0,0007.43,0011.60,0006.48
